Vorticity
-2 24 12 -3 7 5 4 5 7 7 6 4 4 3 5 4 6 6 6 5 5 5 5 5 6 5 4
7 5 21 8 0 7 5 4 4 6 6 4 5 2 5 4 5 6 5 6 6 4 4 4 5 6 5
3 6 4 18 0 8 5 2 2 5 6 3 5 3 4 4 4 4 3 4 5 5 4 3 4 5 5
4 8 -2 8 12 2 9 4 2 2 6 4 4 4 3 4 5 5 3 3 6 5 3 5 3 4 5
32 18 6 5 6 19 3 10 3 3 3 5 5 5 2 5 3 4 3 5 5 5 3 5 3 4 5
-6 19 10 9 17 12 4 7 8 6 3 5 7 5 3 5 4 5 3 4 6 4 5 4 4 4 5
7 23 16 -7 3 11 21 2 6 4 7 5 9 6 4 4 3 3 2 3 5 4 5 4 4 5 3
4 3 8 14 16 14 26 5 12 11 14 6 5 7 8 3 2 2 2 3 4 3 3 5 4 5 4
-5 7 23 -20 9 31 5 6 15 3 9 5 2 7 9 4 2 2 2 5 4 3 2 4 6 5 4
11 -0 3 -31 29 17 3 5 18 14 0 5 8 8 8 4 4 4 3 4 4 3 2 3 4 5 6
11 1 -0 12 10 13 2 -0 12 19 0 5 13 9 7 4 4 5 4 2 4 5 3 4 4 6 8
13 5 7 6 22 16 12 4 5 15 -1 -0 8 10 7 4 4 6 3 2 4 5 6 3 4 6 8
5 -0 1 13 10 1 8 13 12 26 3 -5 10 10 10 7 5 6 6 3 5 4 5 5 3 6 10
10 12 8 -2 -15 -17 19 3 3 17 32 -11 9 9 9 9 6 6 6 3 4 5 6 4 5 7 9
5 6 7 2 13 -11 26 10 11 7 12 19 2 9 8 10 6 4 4 5 6 5 7 3 6 7 7
10 6 8 6 -1 35 -4 4 7 11 -1 33 -4 11 7 11 7 6 6 5 6 7 4 6 6 8 6
15 8 6 6 -7 -28 18 14 -9 7 0 24 0 10 8 9 8 6 6 6 7 6 4 5 7 7 8
Height
5715 5723 5730 5738 5745 5754 5762 5768 5774 5780 5786 5790 5796 5799 5803 5805 5806 5807 5808 5809 5809 5807 5805 5803 5800 5797 5793
5704 5713 5720 5729 5736 5744 5752 5758 5763 5769 5777 5782 5788 5792 5797 5800 5801 5802 5803 5804 5804 5803 5801 5798 5796 5793 5789
5692 5701 5709 5718 5726 5733 5737 5744 5750 5759 5767 5772 5780 5785 5791 5794 5796 5797 5798 5799 5799 5798 5796 5794 5792 5788 5785
5678 5687 5697 5706 5715 5724 5729 5735 5743 5752 5758 5763 5772 5777 5783 5787 5790 5791 5792 5793 5794 5793 5792 5789 5787 5784 5780
5665 5674 5683 5693 5703 5713 5718 5730 5736 5742 5750 5755 5764 5771 5776 5780 5782 5784 5786 5788 5789 5788 5786 5784 5782 5779 5776
5651 5662 5676 5687 5690 5702 5709 5717 5726 5735 5744 5751 5759 5764 5767 5774 5774 5777 5780 5782 5783 5782 5781 5779 5777 5774 5771
5637 5653 5664 5675 5682 5690 5698 5707 5719 5728 5737 5743 5748 5753 5758 5764 5766 5770 5773 5776 5776 5776 5775 5774 5771 5769 5767
5628 5642 5653 5663 5671 5682 5694 5699 5707 5717 5724 5730 5737 5745 5751 5752 5755 5761 5766 5769 5769 5769 5768 5768 5766 5764 5762
5616 5628 5639 5648 5658 5667 5672 5683 5697 5707 5712 5720 5728 5737 5741 5743 5747 5754 5759 5761 5762 5761 5762 5762 5760 5758 5756
5597 5611 5622 5632 5642 5655 5665 5673 5685 5694 5702 5708 5719 5728 5731 5735 5738 5746 5751 5754 5754 5754 5756 5756 5754 5753 5750
5578 5594 5607 5617 5630 5642 5652 5664 5673 5683 5692 5696 5708 5712 5720 5724 5729 5736 5742 5744 5746 5748 5749 5748 5748 5747 5744
5556 5572 5589 5604 5619 5631 5641 5653 5662 5673 5675 5682 5696 5704 5709 5714 5720 5727 5732 5735 5738 5741 5741 5741 5741 5741 5738
5537 5557 5579 5597 5609 5619 5629 5638 5647 5655 5666 5678 5690 5693 5700 5707 5710 5718 5723 5726 5729 5734 5735 5733 5734 5733 5732
5523 5545 5561 5576 5592 5604 5616 5627 5636 5644 5657 5669 5676 5683 5691 5697 5704 5706 5712 5716 5720 5724 5725 5726 5727 5726 5724
5502 5524 5543 5561 5577 5592 5603 5614 5625 5636 5649 5659 5664 5672 5679 5684 5692 5698 5701 5709 5712 5714 5716 5717 5718 5718 5717
5486 5508 5526 5546 5564 5580 5593 5603 5614 5625 5638 5645 5652 5658 5667 5676 5683 5688 5693 5699 5703 5704 5706 5708 5709 5709 5708
5471 5494 5513 5531 5549 5569 5581 5590 5603 5614 5624 5631 5640 5648 5656 5666 5674 5677 5684 5688 5692 5694 5696 5699 5700 5700 5700